Regional Weather Roundup
Issued by NWS Charleston, SC

Current Version | Previous Version | Graphics & Text | Print | Product List | Glossary On
Versions: 1 2 3 4 5 6 7 8 9 10 11 12 13 14 15 16 17 18 19 20 21 22 23 24 25 26 27 28 29 30 31 32 33 34 35 36 37 38 39 40 41 42 43 44 45 46 47 48 49 50
000
ASUS42 KCHS 291811
RWRCHS

REGIONAL WEATHER ROUNDUP
NATIONAL WEATHER SERVICE CHARLESTON SC
100 PM EST THU JAN 29 2015

NOTE: "FAIR" INDICATES FEW OR NO CLOUDS BELOW 12,000 FEET WITH NO
SIGNIFICANT WEATHER AND/OR OBSTRUCTIONS TO VISIBILITY.

NOT ALL STATIONS ARE QUALITY CONTROLLED BY THE NATIONAL
WEATHER SERVICE. USE DATA WITH CAUTION...ESPECIALLY
DEWPOINT OBSERVATIONS.

SCZ027-030-031-034>040-042>050-291900-
...SOUTHEAST SOUTH CAROLINA...

CITY           SKY/WX    TMP DP  RH WIND       PRES   REMARKS
N CHARLESTON   MOSUNNY   56  32  40 S13       30.29F
6HR MIN TEMP:  26; 6HR MAX TEMP:  56;

WATERFRONT PRK   N/A     54 N/A N/A E9          N/A
MOUNT PLEASANT FAIR      54  32  43 S6        30.31F
PINOPOLIS        N/A     57  28  33 CALM      30.23F
MONCKS CORNER  FAIR      55  27  33 SW10      30.29F
SUMMERVILLE    FAIR      54  28  37 S7        30.30F
BEAUFORT MCAS  PTSUNNY   56  41  57 S7        30.30F
6HR MIN TEMP:  30; 6HR MAX TEMP:  58;

BEAUFORT ARPT  FAIR      54  41  62 S6        30.29F
HILTON HEAD IS PTSUNNY   55  37  50 S6        30.31F
WALTERBORO     MOCLDY    55  18  22 S7        30.30F
ALLENDALE      FAIR      54  23  30 SW7       30.29F

...SOUTHERN MIDLANDS AND PEE DEE...

CITY           SKY/WX    TMP DP  RH WIND       PRES   REMARKS
GEORGETOWN     NOT AVBL
KINGSTREE      NOT AVBL
ORANGEBURG     CLOUDY    52  22  30 S12       30.28F
6HR MIN TEMP:  27; 6HR MAX TEMP:  53;

BARNWELL       FAIR      54  27  35 S5        30.29F
AIKEN          FAIR      50  27  40 S8        30.30F
MANNING        FAIR      52  -8   8 S6        30.31F
COLUMBIA       CLOUDY    52  22  30 S10       30.27F
6HR MIN TEMP:  26; 6HR MAX TEMP:  52;

SUMTER         CLOUDY    51  19  28 S9        30.27F
6HR MIN TEMP:  27; 6HR MAX TEMP:  52; 6HR PCP: TRACE;

FLORENCE       PTSUNNY   51  17  26 SW10      30.28F
6HR MIN TEMP:  25; 6HR MAX TEMP:  51;

MYRTLE BEACH   SUNNY     48  28  46 SE12      30.34F
N MYRTLE BEACH SUNNY     48  25  40 S7        30.31F
6HR MIN TEMP:  25; 6HR MAX TEMP:  48;


$$

GAZ063-065-086>088-099>101-113>116-118-119-134>141-150-291900-
...SOUTHEAST GEORGIA...

CITY           SKY/WX    TMP DP  RH WIND       PRES   REMARKS
SAVANNAH ARPT  CLOUDY    57  36  45 S8        30.30F
6HR MIN TEMP:  30; 6HR MAX TEMP:  58;

HUNTER AAF     MOSUNNY   57  40  53 SE10      30.28F
6HR MIN TEMP:  29; 6HR MAX TEMP:  58;

FORT STEWART   PTSUNNY   58  38  47 S9        30.27F
6HR MIN TEMP:  28; 6HR MAX TEMP:  58;

STATESBORO     CLOUDY    56  37  48 S6        30.29F
SYLVANIA       CLOUDY    55  35  46 S3        30.31F
CLAXTON        FAIR      55  39  54 SW6       30.29F

...CSRA...CENTRAL AND FAR SOUTHEAST GEORGIA...

CITY           SKY/WX    TMP DP  RH WIND       PRES   REMARKS
THOMSON        PTSUNNY   54  28  37 S5        30.31F
AUGUSTA-BUSH   CLOUDY    54  22  28 S14       30.28F
6HR MIN TEMP:  24; 6HR MAX TEMP:  54;

AUGUSTA-DANIEL CLOUDY    53  23  31 S8        30.27F
SWAINSBORO     FAIR      55   9  15 S8        30.30F
VIDALIA        CLOUDY    55  34  44 SW9       30.30F
EASTMAN        FAIR      56  29  35 S5        30.32F
HAZLEHURST     FAIR      58  35  43 S6        30.28F
ALMA           PTSUNNY   58  35  42 S9        30.29F
6HR MIN TEMP:  29; 6HR MAX TEMP:  58;

WAYCROSS       PTSUNNY   64  43  46 SW13      30.29F
JESUP          FAIR      61  43  51 CALM      30.29F
BAXLEY         FAIR      59  37  44 SW9       30.28F
BRUNSWICK      MOSUNNY   61  43  51 S7        30.32F
SAINT SIMONS   MOSUNNY   58  41  53 E6        30.31F
6HR MIN TEMP:  35; 6HR MAX TEMP:  58;


$$

SCZ027-028-034-036>038-045-046-048>050-GAZ119-141-291900-
...LAKE AND SUPPLEMENTAL COASTAL OBSERVATIONS...

STATION/POSITION TIME  TEMP    WIND        PRES    WAVE   SWELL
                       AIR SEA DIR/SP/G            HT/PER HT/PER/DIR
                 (UTC) (F)     (DEG/KT/KT) (MB)    (FT/S) (FT/S/D)
UPR LAKE MARION  NOT AVBL
WINYAH BAY       NOT AVBL
LAKE MURRAY      1700   48     190/  6/  9 1025.7F
ACE BASIN NERRS  1645   53     170/  1     1028.0
FORT PULASKI     1700   50 52   70/  5/  6 1028.2F
SAPELO ISLAND    1700   59     150/  3     1028.0S

$$

ANZ835-935-AMZ111-154-330-350-352-354-370-450-454-472-291900-
...C-MAN AND BUOY OBSERVATIONS...

STATION/POSITION TIME  TEMP    WIND        PRES    WAVE   SWELL
                       AIR SEA DIR/SP/G            HT/PER HT/PER/DIR
                 (UTC) (F)     (DEG/KT/KT) (MB)    (FT/S) (FT/S/D)
BUOY 41004       1750   55 68  170/  4/  8 1026.1F   3/11   3/11
BUOY 41008       1750   53 54   10/  8/  8 1026.5F   3/ 7   3/100/ 7
FOLLY BEACH CMAN 1800   49     110/  3/  3 1026.7F
CAPERS NEARSHORE 1700   51      90/  4/  6   N/A
FRIPP NEARSHORE  1700   50      40/  6/  8 1027.0F


STATION/POSITION TIME  TEMP    WIND        PRES    WAVE   SWELL
                       AIR SEA DIR/SP/G            HT/PER HT/PER/DIR
                 (UTC) (F)     (DEG/KT/KT) (MB)    (FT/S) (FT/S/D)
5E ST. MARYS GA  NOT AVBL
FRYING PAN BUOY  1750   50 67  110/  2/  2 1026.8F   3/11   3/110/11
BUOY 41025       1750   40 72  340/  8/ 10 1025.1F   5/ 9   5/ 30/ 9
CAPE LOOKOUT NC  1700   39      70/  3/  4 1026.5F
BUOY 41002       1750   57 72  330/ 12/ 16 1025.5F   7/ 8   7/ 20/ 8
BUOY 41010       1720   64 75   80/ 10/ 14 1025.6F
ST AUGUSTINE FL  1800   56     360/ 10/ 11 1026.4F


$$



USA.gov is the U.S. government's official web portal to all federal, state and local government web resources and services.